SCP
0 0 0 0 0 0 0 0 0 0 0 0 0 0 0 0 0 0 0 0 0 0
0 0 0 0 0 0 0 0 0 0 0 0 0 0 0 0 0 0 0 0 0 0
0 0 0 0 0 0 0 0 0 0 0 0 0 0 0 0 0 0 0 0 0 0
0 0 0 0 0 0 0 0 0 0 0 0 0 0 0 0 0 0 0 0 0 0
0 0 0 0 0 0 0 0 0 0 0 0 0 0 0 0 0 0 0 0 0 0
0 0 0 0 0 0 0 0 0 0 0 0 0 0 0 0 0 0 0 0 0 0
0 0 0 0 0 0 0 0 0 0 0 0 0 0 0 0 0 0 0 0 0 0
0 0 0 0 0 0 0 0 0 0 0 0 0 0 0 0 0 0 0 0 0 0
0 0 0 0 0 0 0 0 0 0 0 0 0 0 0 0 0 0 0 0 0 0
0 0 0 0 0 0 0 0 0 0 0 0 0 0 0 0 0 0 0 0 0 0
0 0 0 0 0 0 0 0 0 0 0 0 0 0 0 0 0 0 0 0 0 0
0 0 0 0 0 0 0 0 0 0 0 0 0 0 0 0 0 0 0 0 0 0
0 0 0 0 0 0 0 0 0 0 0 0 0 0 0 0 0 0 0 0 0 0
0 0 0 0 0 0 0 0 0 0 0 0 0 0 0 0 0 0 0 0 0 0
Wind_Speed_500mb
78 80 82 83 84 83 80 76 81 92 101 101 98 95 88 97 78 93 98 88 98 97
71 75 78 79 78 77 74 73 71 77 90 99 99 93 90 94 95 92 90 99 98 100
62 67 71 74 75 74 70 69 66 68 74 85 88 90 91 91 96 87 94 96 96 97
51 56 62 69 72 71 67 66 63 65 68 79 84 87 97 94 88 88 91 99 96 94
38 46 53 60 64 66 67 65 64 64 66 73 80 85 88 89 92 87 99 103 93 94
36 44 51 54 57 61 61 62 62 63 63 61 65 72 75 81 85 86 84 83 89 96
46 44 51 53 56 59 60 63 66 65 64 65 65 68 70 75 77 82 85 85 91 90
58 54 53 58 59 59 61 64 65 66 68 65 69 72 72 76 81 84 83 81 81 81
65 65 65 64 62 60 60 64 66 68 67 63 68 67 71 76 79 79 79 77 77 77
61 69 71 71 69 66 64 63 67 67 67 64 64 63 67 70 72 74 75 75 76 73
56 63 69 73 73 73 67 66 67 68 67 63 62 63 67 69 68 72 74 73 71 70
54 57 61 67 70 71 69 68 69 68 66 64 59 61 67 71 68 71 70 70 64 61
52 56 59 60 63 65 66 66 65 67 66 65 60 61 67 71 68 67 67 68 64 62
48 49 51 53 57 58 61 63 66 66 64 65 63 60 66 70 69 69 71 74 71 79
Wind_Direction_500mb
251 251 251 252 251 250 248 247 245 237 233 233 238 239 239 239 248 241 248 243 242 236
249 251 252 255 255 254 253 250 250 246 236 234 236 241 239 239 240 244 243 244 245 238
250 253 255 256 254 253 253 252 251 246 238 233 238 239 238 242 242 247 244 244 245 238
257 255 255 256 257 254 254 253 252 248 241 237 238 240 240 240 243 250 246 251 243 236
268 264 261 260 259 259 257 255 252 247 246 243 240 241 243 245 245 248 248 244 241 236
286 276 270 266 262 257 255 253 249 248 246 243 239 239 241 246 249 248 246 243 243 241
287 285 281 272 266 262 256 252 249 248 246 245 242 243 244 247 249 245 247 247 243 243
279 271 272 273 270 265 258 254 250 249 247 247 245 242 244 246 246 245 246 244 241 237
285 277 272 272 271 269 262 255 250 250 249 252 249 248 248 247 247 246 244 242 238 234
289 280 275 273 272 268 264 258 255 251 249 254 249 249 250 249 247 243 242 241 237 233
288 283 278 273 271 269 266 262 257 253 249 250 250 250 250 251 249 245 241 239 239 233
291 284 278 273 272 270 268 265 258 253 249 247 250 251 252 249 247 243 240 237 229 221
287 284 279 277 273 270 267 265 260 255 250 247 249 251 252 251 246 241 234 228 219 221
287 282 280 276 269 267 264 260 256 253 250 247 247 249 253 251 247 239 230 223 214 208
Wind_Speed_850mb
78 80 82 83 84 83 80 76 81 92 101 101 98 95 88 97 78 93 98 88 98 97
71 75 78 79 78 77 74 73 71 77 90 99 99 93 90 94 95 92 90 99 98 100
62 67 71 74 75 74 70 69 66 68 74 85 88 90 91 91 96 87 94 96 96 97
51 56 62 69 72 71 67 66 63 65 68 79 84 87 97 94 88 88 91 99 96 94
38 46 53 60 64 66 67 65 64 64 66 73 80 85 88 89 92 87 99 103 93 94
36 44 51 54 57 61 61 62 62 63 63 61 65 72 75 81 85 86 84 83 89 96
46 44 51 53 56 59 60 63 66 65 64 65 65 68 70 75 77 82 85 85 91 90
58 54 53 58 59 59 61 64 65 66 68 65 69 72 72 76 81 84 83 81 81 81
65 65 65 64 62 60 60 64 66 68 67 63 68 67 71 76 79 79 79 77 77 77
61 69 71 71 69 66 64 63 67 67 67 64 64 63 67 70 72 74 75 75 76 73
56 63 69 73 73 73 67 66 67 68 67 63 62 63 67 69 68 72 74 73 71 70
54 57 61 67 70 71 69 68 69 68 66 64 59 61 67 71 68 71 70 70 64 61
52 56 59 60 63 65 66 66 65 67 66 65 60 61 67 71 68 67 67 68 64 62
48 49 51 53 57 58 61 63 66 66 64 65 63 60 66 70 69 69 71 74 71 79
Wind_Direction_850mb
251 251 251 252 251 250 248 247 245 237 233 233 238 239 239 239 248 241 248 243 242 236
249 251 252 255 255 254 253 250 250 246 236 234 236 241 239 239 240 244 243 244 245 238
250 253 255 256 254 253 253 252 251 246 238 233 238 239 238 242 242 247 244 244 245 238
257 255 255 256 257 254 254 253 252 248 241 237 238 240 240 240 243 250 246 251 243 236
268 264 261 260 259 259 257 255 252 247 246 243 240 241 243 245 245 248 248 244 241 236
286 276 270 266 262 257 255 253 249 248 246 243 239 239 241 246 249 248 246 243 243 241
287 285 281 272 266 262 256 252 249 248 246 245 242 243 244 247 249 245 247 247 243 243
279 271 272 273 270 265 258 254 250 249 247 247 245 242 244 246 246 245 246 244 241 237
285 277 272 272 271 269 262 255 250 250 249 252 249 248 248 247 247 246 244 242 238 234
289 280 275 273 272 268 264 258 255 251 249 254 249 249 250 249 247 243 242 241 237 233
288 283 278 273 271 269 266 262 257 253 249 250 250 250 250 251 249 245 241 239 239 233
291 284 278 273 272 270 268 265 258 253 249 247 250 251 252 249 247 243 240 237 229 221
287 284 279 277 273 270 267 265 260 255 250 247 249 251 252 251 246 241 234 228 219 221
287 282 280 276 269 267 264 260 256 253 250 247 247 249 253 251 247 239 230 223 214 208